Location: Boda
(47.1872°N, 9.5454°E)
Time: 18:32:33
(UTC+00:00)

Meteor 1-16 Rocket - Pass Details

Date: 14 May 2021
Orbit: 790 x 907 km, 81.2° (Epoch: 15 June)

Event Time Altitude Azimuth Distance (km) Brightness Sun altitude
Rises 01:31:37 0° 345° (NNW) 3,547 8.1 -17.7°
Reaches altitude 10° 01:34:08 10° 343° (NNW) 2,598 7.3 -17.4°
Maximum altitude 01:39:58 61° 264° (W) 1,012 4.4 -16.9°
Enters shadow 01:43:39 23° 191° (S) 1,813 5.4 -16.5°
